This is the latest recevied weather packets stored in our database for station/object OK0EK-11. If no packets are shown the sender has not sent any weather packets the latest 10 day(s).
| Time | Temp. | Humidity | Pressure | Rain* | Wind** | Luminosity | Snow |
|---|---|---|---|---|---|---|---|
| 1778260086 | 6.11° C | 97% | 1018.8 hPa | - | - | - | - |
| 1778259486 | 6.67° C | 96% | 1018.8 hPa | - | - | - | - |
| 1778258886 | 6.67° C | 96% | 1018.9 hPa | - | - | - | - |
| 1778258287 | 6.67° C | 95% | 1018.9 hPa | - | - | - | - |
| 1778257688 | 7.22° C | 94% | 1018.9 hPa | - | - | - | - |
| 1778257089 | 7.78° C | 92% | 1018.9 hPa | - | - | - | - |
| 1778256489 | 8.33° C | 89% | 1018.8 hPa | - | - | - | - |
| 1778255890 | 8.33° C | 89% | 1018.9 hPa | - | - | - | - |
| 1778255292 | 8.33° C | 88% | 1019 hPa | - | - | - | - |
| 1778254693 | 8.89° C | 88% | 1018.8 hPa | - | - | - | - |
| 1778254093 | 8.89° C | 90% | 1018.8 hPa | - | - | - | - |
| 1778253493 | 8.33° C | 88% | 1018.9 hPa | - | - | - | - |
| 1778252894 | 8.33° C | 89% | 1018.7 hPa | - | - | - | - |
| 1778252295 | 8.89° C | 87% | 1018.9 hPa | - | - | - | - |
| 1778251695 | 9.44° C | 85% | 1018.7 hPa | - | - | - | - |
| 1778251097 | 10° C | 83% | 1019.1 hPa | - | - | - | - |
| 1778250498 | 10° C | 83% | 1019.1 hPa | - | - | - | - |
| 1778249898 | 10° C | 82% | 1019 hPa | - | - | - | - |
| 1778249299 | 10.56° C | 82% | 1018.9 hPa | - | - | - | - |
| 1778248699 | 10° C | 82% | 1018.8 hPa | - | - | - | - |
| 1778248098 | 10° C | 82% | 1018.9 hPa | - | - | - | - |
| 1778247499 | 10.56° C | 78% | 1018.7 hPa | - | - | - | - |
| 1778246899 | 11.67° C | 76% | 1018.9 hPa | - | - | - | - |
| 1778246300 | 11.67° C | 75% | 1019.1 hPa | - | - | - | - |
| 1778245702 | 11.67° C | 76% | 1018.9 hPa | - | - | - | - |
* Rain since midnight (hover to see other rain measurements)
** Current wind speed in m/s (hover to see current wind gust speed)